CUBEL (47448 NORAD) Tracking and Keplerian Element Data

This shows tracking and keplerian element data for the satellite.

Feedback or suggestion? Click here.




ElementValue
Catalog47448
NameCUBEL
Epoch Orbit1262
Epoch Day106.09377664
Epoch Year2021
RAAN168.51
Inclination97.503
Eccentricity0.0011318
Argument of Perigee321.773
Mean Anonmoly38.2697
Mean Motion15.12772536
Decay Rate2.49E-06
L11 47448U 21006AM 21106.09377664 .00000249 00000-0 17903-4 0 9997
L22 47448 97.5030 168.5100 0011318 321.7730 38.2697 15.12772536 12626

Live tracking and technical data element details for CUBEL (NORAD 47448). CUBEL can be tracked NOW for your location showing map with azimuth and elevation plus other details from your city location.

Track the satellite on the map from your city or location and see movement details for azimuth, elevation, latitude, longitude, range, height, and movement on the map or in text.







IsCatalogInMostPopularTable: catalog: 47448, numindb: 16
Update: records affected: 1



GetName: 47448 CUBEL

Hit Count: updated at: Fri, 16 Apr 2021 11:23:03 GMT